TimeCST,TemperatureF,Dew PointF,Humidity,Sea Level PressureIn,VisibilityMPH,Wind Direction,Wind SpeedMPH,Gust SpeedMPH,PrecipitationIn,Events,Conditions,WindDirDegrees,DateUTC
12:52 AM,12.0,8.1,84,30.42,10.0,Calm,Calm,-,N/A,,Clear,0,2013-02-16 06:52:00
1:52 AM,17.1,12.0,81,30.42,10.0,West,6.9,-,N/A,,Clear,270,2013-02-16 07:52:00
2:52 AM,17.6,10.4,73,30.32,10.0,WSW,4.6,-,N/A,,Clear,240,2013-02-16 08:52:00
3:52 AM,18.0,10.9,74,30.37,10.0,WSW,8.1,-,N/A,,Clear,250,2013-02-16 09:52:00
4:52 AM,16.0,10.0,77,30.35,10.0,SSW,3.5,-,N/A,,Clear,210,2013-02-16 10:52:00
5:52 AM,16.0,9.0,74,30.35,10.0,SW,6.9,-,N/A,,Clear,230,2013-02-16 11:52:00
6:52 AM,14.0,8.1,77,30.33,10.0,SSW,9.2,-,N/A,,Partly Cloudy,200,2013-02-16 12:52:00
7:52 AM,19.0,12.0,74,30.30,10.0,SW,13.8,-,N/A,,Clear,220,2013-02-16 13:52:00
8:52 AM,26.1,19.0,75,30.27,10.0,SW,16.1,-,N/A,,Clear,220,2013-02-16 14:52:00
9:52 AM,35.1,23.0,61,30.23,10.0,SW,18.4,-,N/A,,Clear,230,2013-02-16 15:52:00
10:52 AM,43.0,19.0,38,30.19,10.0,WSW,16.1,-,N/A,,Clear,240,2013-02-16 16:52:00
11:52 AM,51.1,19.0,28,30.17,10.0,West,16.1,26.5,N/A,,Clear,280,2013-02-16 17:52:00
12:52 PM,57.9,21.9,25,30.12,10.0,NW,16.1,24.2,N/A,,Clear,320,2013-02-16 18:52:00
1:52 PM,61.0,21.9,22,30.07,10.0,WNW,24.2,31.1,N/A,,Scattered Clouds,300,2013-02-16 19:52:00
2:52 PM,61.0,21.0,21,30.05,10.0,NNW,18.4,26.5,N/A,,Clear,340,2013-02-16 20:52:00
3:52 PM,61.0,21.0,21,30.04,10.0,NNW,12.7,29.9,N/A,,Scattered Clouds,330,2013-02-16 21:52:00
4:52 PM,61.0,21.0,21,30.03,10.0,NNW,12.7,-,N/A,,Partly Cloudy,340,2013-02-16 22:52:00
5:52 PM,55.9,21.0,26,30.04,10.0,NNW,5.8,-,N/A,,Clear,330,2013-02-16 23:52:00
6:52 PM,48.9,21.0,33,30.06,10.0,Calm,Calm,-,N/A,,Overcast,0,2013-02-17 00:52:00
7:52 PM,44.1,21.9,42,30.06,10.0,Calm,Calm,-,N/A,,Clear,0,2013-02-17 01:52:00
8:52 PM,43.0,21.0,42,30.04,10.0,SW,5.8,-,N/A,,Clear,230,2013-02-17 02:52:00
9:52 PM,44.1,21.0,40,30.03,10.0,WSW,4.6,-,N/A,,Clear,250,2013-02-17 03:52:00
10:52 PM,37.0,19.9,50,30.02,10.0,SW,5.8,-,N/A,,Clear,220,2013-02-17 04:52:00
11:52 PM,39.9,18.0,41,29.98,10.0,Calm,Calm,-,N/A,,Clear,0,2013-02-17 05:52:00